Regional Weather Roundup
Issued by NWS

Home | Current Version | Previous Version | Text Only | Print | Product List | Glossary On
Versions: 1 2 3 4 5 6 7 8 9 10 11 12 13 14 15 16 17 18 19 20 21 22 23 24 25 26 27 28 29 30 31 32 33 34 35 36 37 38 39 40 41 42 43 44 45 46 47 48 49 50
000
ASUS44 KMEG 241010
RWRTN
TENNESSEE HOURLY STATE WEATHER ROUNDUP
NATIONAL WEATHER SERVICE MEMPHIS TN
400 AM CST WED JAN 24 2018

TNZ002-004-019-021-049-052-054-088>092-241100-
WEST TENNESSEE

CITY           SKY/WX    TMP DP  RH WIND       PRES   REMARKS
MEMPHIS INTL   FAIR      30  28  92 CALM      30.33R
NWS MEMPHIS      N/A     26 N/A N/A MISG        N/A
JACKSON        FAIR      26  25  96 W5        30.32R WCI  20
DYERSBURG      FAIR      27  26  96 CALM      30.32S
SOMERVILLE     CLEAR     27  25  93 CALM      30.31R
COVINGTON      CLEAR     27  27 100 SW3       30.33S
UNION CITY     CLEAR     28  27  93 W3        30.30R
BOLIVAR        CLEAR     25  23  93 CALM      30.31R
PARIS          CLEAR     27  25  93 W5        30.28R WCI  21
HUNTINGDON     CLEAR     28  28 100 W3        30.28R
LEXINGTON        N/A     27  27 100 CALM      30.29S
SELMER         CLEAR     27  25  93 W5        30.29S WCI  21
SAVANNAH       CLEAR     27  25  93 CALM      30.30S
$$

TNZ008-025-027-028-033-062-065-066-241100-
NORTH MIDDLE TENNESSEE

CITY           SKY/WX    TMP DP  RH WIND       PRES   REMARKS
NASHVILLE      CLOUDY    37  27  67 CALM      30.28R
PORTLAND       CLOUDY    36  28  75 CALM      30.26R
CLARKSVILLE    CLOUDY    34  27  75 CALM      30.27R
SMYRNA         CLOUDY    37  27  67 CALM      30.30R
COOKEVILLE     CLOUDY    34  27  75 NW3       30.25R
GALLATIN       CLOUDY    37  27  65 N5        30.30R WCI  34
CROSSVILLE     CLOUDY    30  25  81 NW7       30.21R WCI  23
$$

TNZ061-075-076-078-094-096-097-241100-
SOUTH MIDDLE TENNESSEE

CITY           SKY/WX    TMP DP  RH WIND       PRES   REMARKS
FAYETTEVILLE   MOCLDY    36  28  75 N7        30.25S WCI  30
TULLAHOMA      CLOUDY    36  27  69 N10       30.25S WCI  28
WINCHESTER     CLOUDY    36  28  75 N6        30.26S WCI  31
MCMINNVILLE    CLOUDY    34  25  69 N7        30.27R WCI  28
COLUMBIA       PTCLDY    28  28 100 CALM      30.27R
SHELBYVILLE    CLOUDY    36  27  69 N6        30.28S WCI  31
$$

TNZ017-018-042-046-047-241100-
NORTHEAST TENNESSEE

CITY           SKY/WX    TMP DP  RH WIND       PRES   REMARKS
TRI CITIES     MOCLDY    36  29  75 W12       30.18R WCI  28
ELIZABETHTON   CLOUDY    37  27  65 W5G14     30.17R WCI  34
$$

TNZ012-013-036-069-073-074-241100-
CENTRAL EAST TENNESSEE

CITY           SKY/WX    TMP DP  RH WIND       PRES   REMARKS
KNOXVILLE      CLOUDY    38  28  67 W3        30.20S
OAK RIDGE      CLOUDY    39  29  67 CALM      30.23R
DOWNTOWN KNOXV CLOUDY    39  30  70 CALM      30.22S
GATLINBURG     CLOUDY    37  27  65 CALM      30.21S
MORRISTOWN     CLOUDY    36  32  87 NW5       30.19S WCI  32
JACKSBORO      CLOUDY    34  27  75 VRB5      30.25S WCI  30
$$

TNZ083-085-099-241100-
SOUTHEAST TENNESSEE

CITY           SKY/WX    TMP DP  RH WIND       PRES   REMARKS
CHATTANOOGA    CLOUDY    39  27  62 NW8       30.25R WCI  33
DAYTON         CLOUDY    39  30  70 NW6       30.24R WCI  35
$$

SKY/WX REPORTED AS FAIR MEANS FEW OR NO CLOUDS BELOW
12 THOUSAND FEET.




USA.gov is the U.S. government's official web portal to all federal, state and local government web resources and services.